Powrót do katalogu

COSMOS 886 DEB

AktywnyLEO
NORAD 9654·DEBRIS·🇷🇺 Russia

Wystrzelony Dec 27, 1976 z Baikonur Cosmodrome

Loading…

Następne Przeloty (najbliższe 24 godziny)

TLE

ŚwieżeSource: Space-Track

Epoka: Sep 14, 2026, 06:14 UTC

1 09654U 76126L   26257.26029843  .00002328  00000-0  90809-3 0  9996
2 09654  65.7686 217.1950 0684991  59.8901 306.8244 13.47216420369496

Śledź COSMOS 886 DEB w czasie rzeczywistym z AllMySat

Download on the App Store